DAL388 KLAX-KLAS

Flight info

Callsign DAL388
Flight time N/A
Altitude 29000
Route ORCKA5 MISEN RNDRZ4
Aircraft A320/M-SDE3FGHIRWY/LB1

Departure

Time 2026-05-05 18:33
Airport Los Angeles International Airport (KLAX)

Arrival

Time N/A
Airport Harry Reid International Airport (KLAS)
Time Latitude Longitude Altitude Speed Heading
2026-05-05 17:56 33.94705 -118.40782 93 ft 0 kts 163°
2026-05-05 18:19 33.94718 -118.40787 96 ft 4 kts 156°
2026-05-05 18:19 33.94740 -118.40803 93 ft 4 kts 132°
2026-05-05 18:20 33.94753 -118.40829 93 ft 4 kts 101°
2026-05-05 18:20 33.94755 -118.40848 94 ft 0 kts 82°
2026-05-05 18:23 33.94755 -118.40847 94 ft 2 kts 82°
2026-05-05 18:23 33.94759 -118.40810 96 ft 7 kts 81°
2026-05-05 18:24 33.94770 -118.40710 93 ft 13 kts 83°
2026-05-05 18:24 33.94789 -118.40619 93 ft 10 kts 53°
2026-05-05 18:24 33.94843 -118.40602 94 ft 7 kts
2026-05-05 18:24 33.94870 -118.40533 94 ft 14 kts 81°
2026-05-05 18:25 33.94882 -118.40417 95 ft 16 kts 83°
2026-05-05 18:25 33.94887 -118.40373 94 ft 15 kts 83°
2026-05-05 18:25 33.94907 -118.40177 94 ft 13 kts 83°
2026-05-05 18:25 33.94916 -118.40085 93 ft 13 kts 83°
2026-05-05 18:26 33.94924 -118.40007 93 ft 0 kts 83°
2026-05-05 18:27 33.94924 -118.40006 93 ft 1 kts 83°
2026-05-05 18:27 33.94927 -118.39978 93 ft 6 kts 82°
2026-05-05 18:28 33.94953 -118.39924 95 ft 0 kts 37°
2026-05-05 18:32 33.95008 -118.39913 94 ft 12 kts 352°
2026-05-05 18:32 33.95038 -118.39989 94 ft 11 kts 263°
2026-05-05 18:32 33.95035 -118.40013 93 ft 7 kts 263°
2026-05-05 18:32 33.94998 -118.40376 98 ft 79 kts 263°
2026-05-05 18:33 33.94941 -118.40924 97 ft 119 kts 263°
2026-05-05 18:33 33.94830 -118.41909 152 ft 154 kts 260°
2026-05-05 18:33 33.94742 -118.42979 632 ft 153 kts 263°
2026-05-05 18:33 33.94660 -118.43828 1162 ft 151 kts 262°
2026-05-05 18:34 33.94520 -118.45542 2161 ft 166 kts 263°
2026-05-05 18:34 33.94368 -118.47014 2698 ft 189 kts 263°
2026-05-05 18:34 33.94180 -118.48674 3145 ft 212 kts 262°
2026-05-05 18:34 33.94037 -118.49888 3393 ft 229 kts 262°
2026-05-05 18:35 33.93798 -118.51886 3867 ft 251 kts 262°
2026-05-05 18:35 33.93551 -118.53974 4683 ft 258 kts 262°
2026-05-05 18:35 33.93431 -118.55161 5082 ft 262 kts 266°
2026-05-05 18:35 33.93272 -118.56815 5737 ft 266 kts 261°
2026-05-05 18:36 33.92663 -118.58718 6471 ft 276 kts 237°
2026-05-05 18:36 33.91445 -118.60181 7195 ft 281 kts 214°
2026-05-05 18:36 33.89587 -118.60992 8012 ft 290 kts 186°
2026-05-05 18:36 33.87587 -118.60666 8881 ft 296 kts 157°
2026-05-05 18:37 33.85919 -118.59224 9750 ft 299 kts 129°
2026-05-05 18:37 33.85020 -118.57050 10468 ft 301 kts 99°
2026-05-05 18:37 33.85088 -118.54566 11198 ft 301 kts 71°
2026-05-05 18:37 33.86093 -118.52412 11804 ft 305 kts 46°
2026-05-05 18:38 33.87576 -118.50457 12016 ft 328 kts 44°
2026-05-05 18:38 33.89210 -118.48423 12346 ft 346 kts 44°
2026-05-05 18:38 33.90927 -118.46343 13000 ft 352 kts 43°
2026-05-05 18:38 33.92650 -118.44218 13713 ft 358 kts 46°
2026-05-05 18:39 33.94164 -118.41799 14390 ft 364 kts 53°
2026-05-05 18:39 33.95553 -118.39359 15045 ft 367 kts 54°
2026-05-05 18:39 33.97002 -118.36823 15719 ft 370 kts 53°
2026-05-05 18:39 33.98426 -118.34329 16465 ft 373 kts 54°
2026-05-05 18:40 33.99890 -118.31733 17209 ft 376 kts 54°
2026-05-05 18:40 34.01360 -118.29107 17874 ft 379 kts 55°
2026-05-05 18:40 34.02833 -118.26480 18498 ft 382 kts 54°
2026-05-05 18:40 34.04313 -118.23834 19059 ft 384 kts 54°
2026-05-05 18:41 34.05792 -118.21184 19625 ft 386 kts 54°
2026-05-05 18:41 34.07313 -118.18496 20192 ft 388 kts 53°
2026-05-05 18:41 34.08847 -118.15798 20833 ft 391 kts 53°
2026-05-05 18:41 34.10394 -118.13083 21472 ft 393 kts 53°
2026-05-05 18:42 34.11111 -118.11850 21722 ft 394 kts 51°
2026-05-05 18:42 34.12745 -118.09178 22269 ft 397 kts 53°
2026-05-05 18:42 34.14307 -118.06455 22798 ft 400 kts 54°
2026-05-05 18:42 34.15844 -118.03664 23358 ft 402 kts 55°
2026-05-05 18:43 34.17385 -118.00834 23829 ft 404 kts 56°
2026-05-05 18:43 34.18315 -117.99128 24078 ft 405 kts 56°
2026-05-05 18:43 34.19354 -117.96904 24332 ft 408 kts 60°
2026-05-05 18:43 34.20771 -117.93926 24719 ft 410 kts 55°
2026-05-05 18:44 34.22381 -117.91071 25113 ft 411 kts 52°
2026-05-05 18:44 34.24083 -117.88276 25485 ft 414 kts 51°
2026-05-05 18:44 34.25797 -117.85496 25852 ft 416 kts 51°
2026-05-05 18:44 34.27455 -117.82764 26215 ft 418 kts 53°